| time (UTC) | temp F | wind direction | speed knots | gust knots | rain 1hr in | rain 24hr in | rain mn in | humidity % | barometer mb |
| 20260507171551 | 50 | 283 | 0.9 | 7.8 | 0.00 | 0.20 | 0.00 | 80 | 1005.1 |
| 20260507170049 | 50 | 263 | 0.9 | 7.0 | 0.00 | 0.20 | 0.00 | 78 | 1005.1 |
| 20260507164544 | 51 | 300 | 0.9 | 3.5 | 0.00 | 0.20 | 0.00 | 75 | 1005.0 |
| 20260507163041 | 52 | 254 | 0.9 | 7.0 | 0.00 | 0.20 | 0.00 | 73 | 1005.0 |
| 20260507161542 | 52 | 254 | 2.6 | 7.0 | 0.00 | 0.20 | 0.00 | 74 | 1005.2 |
| 20260507160036 | 53 | 287 | 1.7 | 9.6 | 0.00 | 0.20 | 0.00 | 73 | 1005.0 |
| 20260507154536 | 55 | 250 | 0.9 | 7.8 | 0.00 | 0.20 | 0.00 | 69 | 1004.9 |
| 20260507153040 | 57 | 226 | 3.5 | 7.8 | 0.00 | 0.20 | 0.00 | 61 | 1004.7 |
| 20260507151532 | 58 | 247 | 2.6 | 10.4 | 0.00 | 0.20 | 0.00 | 63 | 1004.4 |
| 20260507150032 | 57 | 231 | 3.5 | 7.8 | 0.00 | 0.20 | 0.00 | 62 | 1004.1 |
| 20260507144527 | 60 | 175 | 4.3 | 7.8 | 0.00 | 0.20 | 0.00 | 59 | 1003.9 |
| 20260507143027 | 59 | 128 | 2.6 | 7.0 | 0.00 | 0.27 | 0.00 | 64 | 1003.9 |
| 20260507141524 | 58 | 271 | 2.6 | 8.7 | 0.00 | 0.27 | 0.00 | 69 | 1004.1 |
| 20260507140024 | 59 | 227 | 1.7 | 8.7 | 0.00 | 0.27 | 0.00 | 69 | 1004.2 |
| 20260507134520 | 61 | 250 | 3.5 | 8.7 | 0.00 | 0.27 | 0.00 | 66 | 1004.2 |
| 20260507133019 | 59 | 217 | 2.6 | 7.8 | 0.00 | 0.28 | 0.00 | 69 | 1004.3 |
| 20260507131520 | 59 | 223 | 2.6 | 7.8 | 0.00 | 0.28 | 0.00 | 65 | 1004.4 |
| 20260507130027 | 61 | 291 | 2.6 | 7.8 | 0.00 | 0.28 | 0.00 | 60 | 1004.5 |
| 20260507124520 | 59 | 202 | 1.7 | 7.0 | 0.00 | 0.28 | 0.00 | 62 | 1004.5 |
| 20260507123013 | 62 | 281 | 0.9 | 6.1 | 0.00 | 0.37 | 0.00 | 62 | 1004.5 |
| 20260507121512 | 61 | 232 | 1.7 | 10.4 | 0.00 | 0.37 | 0.00 | 65 | 1004.5 |
| 20260507120019 | 61 | 258 | 3.5 | 7.8 | 0.00 | 0.37 | 0.00 | 66 | 1004.6 |
| 20260507114507 | 61 | 249 | 4.3 | 7.8 | 0.00 | 0.37 | 0.00 | 66 | 1004.7 |
| 20260507113007 | 63 | 265 | 2.6 | 7.0 | 0.00 | 0.39 | 0.00 | 59 | 1004.8 |
| 20260507111507 | 63 | 289 | 2.6 | 6.1 | 0.00 | 0.39 | 0.00 | 66 | 1004.8 |
| 20260507110002 | 62 | 176 | 1.7 | 8.7 | 0.00 | 0.39 | 0.00 | 62 | 1004.9 |
| 20260507104557 | 60 | 248 | 0.9 | 7.0 | 0.00 | 0.39 | 0.00 | 64 | 1005.0 |
| 20260507103057 | 60 | 291 | 1.7 | 6.1 | 0.00 | 0.45 | 0.00 | 66 | 1005.0 |
| 20260507101557 | 60 | 238 | 1.7 | 6.1 | 0.00 | 0.45 | 0.00 | 66 | 1005.0 |
| 20260507100053 | 58 | 190 | 1.7 | 7.0 | 0.00 | 0.45 | 0.00 | 69 | 1005.1 |
| 20260507094548 | 57 | 13 | 2.6 | 5.2 | 0.00 | 0.45 | 0.00 | 72 | 1005.2 |
| 20260507093053 | 56 | 253 | 0.9 | 2.6 | 0.00 | 0.64 | 0.00 | 78 | 1005.2 |
| 20260507091547 | 56 | 311 | 0.9 | 3.5 | 0.00 | 0.64 | 0.00 | 77 | 1005.2 |
| 20260507090046 | 57 | 273 | 2.6 | 5.2 | 0.00 | 0.64 | 0.00 | 72 | 1005.2 |
| 20260507084546 | 58 | 263 | 0.9 | 4.3 | 0.00 | 0.64 | 0.00 | 69 | 1005.0 |
| 20260507083038 | 56 | 253 | 0.9 | 3.5 | 0.00 | 0.83 | 0.00 | 77 | 1004.9 |
| 20260507081537 | 56 | 263 | 1.7 | 6.1 | 0.00 | 0.83 | 0.00 | 76 | 1004.9 |
| 20260507080040 | 56 | 179 | 1.7 | 4.3 | 0.00 | 0.83 | 0.00 | 76 | 1004.8 |
| 20260507074503 | 55 | 279 | 1.7 | 7.0 | 0.00 | 0.83 | 0.00 | 79 | 1004.8 |
| 20260507073001 | 54 | 254 | 0.9 | 4.3 | 0.00 | 0.99 | 0.00 | 80 | 1004.8 |
| 20260507071611 | 54 | 275 | 1.7 | 6.1 | 0.00 | 0.99 | 0.00 | 78 | 1004.7 |
| 20260507070057 | 54 | 250 | 0.9 | 6.1 | 0.00 | 0.99 | 0.00 | 78 | 1004.5 |
| 20260507064554 | 54 | 233 | 4.3 | 7.8 | 0.00 | 0.99 | 0.00 | 81 | 1004.5 |
| 20260507063049 | 52 | 264 | 0.9 | 5.2 | 0.00 | 1.02 | 0.99 | 82 | 1004.6 |
| 20260507061545 | 51 | 265 | 1.7 | 3.5 | 0.00 | 1.02 | 0.99 | 84 | 1004.5 |
| 20260507060039 | 49 | 198 | 0.9 | 3.5 | 0.00 | 1.02 | 0.99 | 82 | 1004.6 |
| 20260507054533 | 48 | 251 | 0.0 | 2.6 | 0.00 | 1.02 | 0.99 | 79 | 1004.5 |
| 20260507053042 | 47 | 251 | 0.0 | 5.2 | 0.00 | 1.02 | 0.99 | 72 | 1004.3 |
| 20260507051531 | 46 | 250 | 0.9 | 6.1 | 0.00 | 1.02 | 0.99 | 62 | 1004.2 |
| 20260507050019 | 46 | 252 | 0.9 | 3.5 | 0.00 | 1.02 | 0.99 | 67 | 1004.1 |
| 20260507044513 | 46 | 259 | 0.0 | 3.5 | 0.00 | 1.02 | 0.99 | 59 | 1003.9 |
| 20260507043011 | 46 | 306 | 1.7 | 3.5 | 0.00 | 1.02 | 0.99 | 62 | 1003.8 |
| 20260507041503 | 46 | 271 | 0.9 | 2.6 | 0.00 | 1.02 | 0.99 | 67 | 1003.7 |
| 20260507034553 | 46 | 279 | 1.7 | 7.0 | 0.00 | 1.02 | 0.99 | 75 | 1003.6 |
| 20260507033051 | 46 | 302 | 3.5 | 7.8 | 0.00 | 1.02 | 0.99 | 75 | 1003.5 |
| 20260507031546 | 46 | 242 | 3.5 | 9.6 | 0.00 | 1.02 | 0.99 | 76 | 1003.5 |
| 20260507030038 | 47 | 235 | 2.6 | 7.8 | 0.00 | 1.02 | 0.99 | 74 | 1003.6 |
| 20260507024537 | 47 | 234 | 2.6 | 9.6 | 0.00 | 1.02 | 0.99 | 75 | 1003.4 |
| 20260507023034 | 47 | 290 | 2.6 | 11.3 | 0.00 | 1.02 | 0.99 | 79 | 1003.3 |
| 20260507021524 | 47 | 273 | 0.9 | 8.7 | 0.00 | 1.02 | 0.99 | 81 | 1003.3 |
| 20260507020021 | 48 | 223 | 0.9 | 9.6 | 0.00 | 1.02 | 0.99 | 80 | 1003.5 |
| 20260507014515 | 48 | 262 | 3.5 | 9.6 | 0.00 | 1.02 | 0.99 | 81 | 1003.3 |
| 20260507013008 | 48 | 234 | 5.2 | 15.6 | 0.00 | 1.02 | 0.99 | 80 | 1003.5 |
| 20260507011506 | 48 | 217 | 3.5 | 8.7 | 0.00 | 1.02 | 0.99 | 80 | 1003.4 |
| 20260507010107 | 48 | 317 | 1.7 | 15.6 | 0.00 | 1.02 | 0.99 | 81 | 1003.4 |
| 20260507004605 | 48 | 213 | 3.5 | 10.4 | 0.00 | 1.02 | 0.99 | 81 | 1003.7 |
| 20260507003049 | 48 | 194 | 4.3 | 12.2 | 0.00 | 1.02 | 0.99 | 79 | 1003.6 |
| 20260507001550 | 48 | 267 | 3.5 | 14.8 | 0.00 | 1.02 | 0.99 | 77 | 1003.6 |
| 20260507000037 | 48 | 276 | 4.3 | 13.9 | 0.00 | 1.02 | 0.99 | 79 | 1003.7 |
| 20260506234531 | 49 | 196 | 5.2 | 12.2 | 0.00 | 1.02 | 0.99 | 77 | 1003.8 |
| 20260506233027 | 49 | 166 | 5.2 | 13.0 | 0.00 | 1.02 | 0.99 | 69 | 1004.0 |
| 20260506231523 | 49 | 217 | 5.2 | 18.2 | 0.00 | 1.02 | 0.99 | 56 | 1004.2 |
| 20260506230015 | 49 | 234 | 4.3 | 13.0 | 0.00 | 1.02 | 0.99 | 45 | 1004.0 |
| 20260506224511 | 49 | 244 | 8.7 | 14.8 | 0.00 | 1.02 | 0.99 | 33 | 1004.3 |
| 20260506223008 | 49 | 246 | 7.0 | 14.8 | 0.00 | 1.02 | 0.99 | 32 | 1004.0 |
| 20260506221507 | 48 | 250 | 4.3 | 11.3 | 0.00 | 1.02 | 0.99 | 27 | 1004.1 |
| 20260506220057 | 48 | 290 | 3.5 | 11.3 | 0.00 | 1.02 | 0.99 | 27 | 1004.0 |
| 20260506214602 | 48 | 273 | 3.5 | 12.2 | 0.00 | 1.02 | 0.99 | 22 | 1004.0 |
| 20260506213049 | 48 | 277 | 1.7 | 10.4 | 0.00 | 1.02 | 0.99 | 18 | 1003.9 |
| 20260506211545 | 48 | 219 | 2.6 | 12.2 | 0.00 | 1.02 | 0.99 | 18 | 1003.8 |
| 20260506210037 | 48 | 252 | 6.1 | 13.0 | 0.00 | 1.02 | 0.99 | 20 | 1003.9 |
| 20260506204534 | 47 | 226 | 4.3 | 20.0 | 0.00 | 1.02 | 0.99 | 25 | 1004.0 |
| 20260506203030 | 47 | 255 | 7.0 | 19.1 | 0.00 | 1.02 | 0.99 | 29 | 1004.1 |
| 20260506201525 | 47 | 190 | 3.5 | 13.9 | 0.00 | 1.02 | 0.99 | 25 | 1003.8 |
| 20260506200021 | 47 | 222 | 4.3 | 13.9 | 0.01 | 1.02 | 0.99 | 21 | 1003.9 |
| 20260506194513 | 47 | 194 | 6.1 | 11.3 | 0.01 | 1.02 | 0.99 | 19 | 1003.8 |
| 20260506193008 | 47 | 296 | 7.0 | 13.9 | 0.02 | 1.02 | 0.99 | 15 | 1003.3 |
| 20260506191504 | 48 | 273 | 0.9 | 8.7 | 0.02 | 1.02 | 0.99 | 9 | 1003.0 |
| 20260506190059 | 48 | 231 | 3.5 | 13.9 | 0.02 | 1.02 | 0.98 | 8 | 1002.7 |
| 20260506184552 | 48 | 242 | 7.0 | 20.9 | 0.02 | 1.02 | 0.98 | 8 | 1002.5 |
| 20260506183052 | 48 | 345 | 2.6 | 13.0 | 0.13 | 1.02 | 0.97 | 10 | 1002.4 |
| 20260506181554 | 47 | 240 | 5.2 | 13.0 | 0.17 | 1.02 | 0.97 | 15 | 1002.7 |
| 20260506180053 | 47 | 243 | 6.1 | 15.6 | 0.18 | 1.02 | 0.97 | 17 | 1002.7 |
| 20260506174531 | 48 | 263 | 5.2 | 14.8 | 0.18 | 1.02 | 0.97 | 19 | 1002.5 |
| 20260506173028 | 49 | 267 | 4.3 | 9.6 | 0.04 | 0.90 | 0.83 | 11 | 1002.6 |